| time (UTC) | temp C | wind direction | speed KPH | gust KPH | rain 1hr cm | rain 24hr cm | rain mn cm | humidity % | barometer mb |
| 20260506224928 | 16 | 23 | 0.0 | 0.0 | 0.03 | 0.03 | 0.00 | 70 | 1005.5 |
| 20260506223913 | 17 | 27 | 0.0 | 0.0 | 0.03 | 0.03 | 0.00 | 69 | 1005.5 |
| 20260506222904 | 16 | 203 | 0.0 | 0.0 | 0.00 | 0.00 | 0.00 | 68 | 1005.4 |
| 20260506221851 | 16 | 216 | 4.8 | 4.8 | 0.00 | 0.00 | 0.00 | 71 | 1005.9 |
| 20260506220836 | 16 | 204 | 0.0 | 0.0 | 0.00 | 0.00 | 0.00 | 75 | 1005.1 |
| 20260506215823 | 16 | 202 | 0.0 | 0.0 | 0.00 | 0.00 | 0.00 | 73 | 1005.0 |
| 20260506214823 | 16 | 202 | 0.0 | 0.0 | 0.00 | 0.00 | 0.00 | 71 | 1005.0 |
| 20260506213811 | 17 | 214 | 0.0 | 0.0 | 0.00 | 0.00 | 0.00 | 64 | 1005.2 |
| 20260506212758 | 17 | 198 | 6.4 | 6.4 | 0.00 | 0.00 | 0.00 | 62 | 1005.3 |
| 20260506211759 | 17 | 206 | 0.0 | 0.0 | 0.00 | 0.00 | 0.00 | 62 | 1005.0 |
| 20260506210746 | 17 | 193 | 1.6 | 1.6 | 0.00 | 0.00 | 0.00 | 62 | 1005.2 |
| 20260506205746 | 17 | 206 | 1.6 | 1.6 | 0.00 | 0.00 | 0.00 | 62 | 1005.1 |
| 20260506204733 | 16 | 204 | 0.0 | 0.0 | 0.00 | 0.00 | 0.00 | 66 | 1005.2 |
| 20260506203721 | 17 | 202 | 1.6 | 1.6 | 0.00 | 0.00 | 0.00 | 67 | 1005.1 |
| 20260506202710 | 16 | 204 | 0.0 | 0.0 | 0.00 | 0.00 | 0.00 | 68 | 1005.1 |
| 20260506201708 | 17 | 204 | 0.0 | 0.0 | 0.00 | 0.00 | 0.00 | 71 | 1005.1 |
| 20260506200702 | 17 | 221 | 0.0 | 0.0 | 0.00 | 0.00 | 0.00 | 69 | 1005.1 |
| 20260506194643 | 17 | 288 | 0.0 | 0.0 | 0.00 | 0.00 | 0.00 | 67 | 1005.1 |
| 20260506193631 | 18 | 292 | 0.0 | 0.0 | 0.00 | 0.00 | 0.00 | 66 | 1005.1 |
| 20260506192631 | 18 | 292 | 0.0 | 0.0 | 0.00 | 0.00 | 0.00 | 65 | 1005.1 |
| 20260506191618 | 18 | 282 | 0.0 | 0.0 | 0.00 | 0.00 | 0.00 | 62 | 1005.1 |
| 20260506190618 | 19 | 282 | 0.0 | 0.0 | 0.00 | 0.00 | 0.00 | 61 | 1005.0 |
| 20260506185607 | 19 | 282 | 0.0 | 0.0 | 0.00 | 0.00 | 0.00 | 60 | 1004.9 |
| 20260506184606 | 19 | 209 | 0.0 | 0.0 | 0.00 | 0.00 | 0.00 | 60 | 1004.8 |
| 20260506183555 | 20 | 209 | 0.0 | 0.0 | 0.00 | 0.00 | 0.00 | 58 | 1004.7 |
| 20260506182553 | 20 | 356 | 0.0 | 0.0 | 0.00 | 0.00 | 0.00 | 57 | 1004.6 |
| 20260506181541 | 20 | 356 | 0.0 | 0.0 | 0.00 | 0.00 | 0.00 | 55 | 1004.4 |
| 20260506180535 | 21 | 356 | 0.0 | 0.0 | 0.00 | 0.00 | 0.00 | 53 | 1004.4 |
| 20260506173331 | 22 | 356 | 0.0 | 0.0 | 0.00 | 0.00 | 0.00 | 46 | 1004.4 |
| 20260506172248 | 22 | 205 | 0.0 | 0.0 | 0.00 | 0.00 | 0.00 | 46 | 1004.4 |
| 20260506171200 | 22 | 176 | 0.0 | 0.0 | 0.00 | 0.00 | 0.00 | 45 | 1004.3 |
| 20260506170125 | 23 | 48 | 0.0 | 0.0 | 0.00 | 0.00 | 0.00 | 44 | 1004.4 |
| 20260506165048 | 22 | 208 | 1.6 | 1.6 | 0.00 | 0.00 | 0.00 | 45 | 1004.4 |
| 20260506164041 | 23 | 180 | 1.6 | 1.6 | 0.00 | 0.00 | 0.00 | 44 | 1004.4 |
| 20260506163041 | 23 | 198 | 1.6 | 1.6 | 0.00 | 0.00 | 0.00 | 44 | 1004.3 |
| 20260506162029 | 23 | 180 | 3.2 | 3.2 | 0.00 | 0.00 | 0.00 | 44 | 1004.4 |
| 20260506160003 | 23 | 189 | 3.2 | 3.2 | 0.00 | 0.00 | 0.00 | 42 | 1004.4 |
| 20260506155003 | 23 | 180 | 3.2 | 3.2 | 0.00 | 0.00 | 0.00 | 40 | 1004.3 |
| 20260506153951 | 24 | 183 | 4.8 | 4.8 | 0.00 | 0.00 | 0.00 | 40 | 1004.4 |
| 20260506152951 | 23 | 192 | 6.4 | 6.4 | 0.00 | 0.00 | 0.00 | 39 | 1004.4 |
| 20260506151951 | 24 | 198 | 3.2 | 3.2 | 0.00 | 0.00 | 0.00 | 39 | 1004.4 |
| 20260506150951 | 25 | 31 | 6.4 | 6.4 | 0.00 | 0.00 | 0.00 | 38 | 1004.3 |
| 20260506145939 | 24 | 192 | 8.0 | 8.0 | 0.00 | 0.00 | 0.00 | 40 | 1004.4 |
| 20260506144926 | 24 | 200 | 11.3 | 12.9 | 0.00 | 0.00 | 0.00 | 40 | 1004.5 |
| 20260506143926 | 23 | 176 | 8.0 | 9.7 | 0.00 | 0.00 | 0.00 | 40 | 1004.5 |
| 20260506142913 | 24 | 195 | 1.6 | 1.6 | 0.00 | 0.00 | 0.00 | 40 | 1004.5 |
| 20260506141914 | 24 | 198 | 8.0 | 8.0 | 0.00 | 0.00 | 0.00 | 39 | 1004.6 |
| 20260506140901 | 23 | 194 | 11.3 | 14.5 | 0.00 | 0.00 | 0.00 | 40 | 1004.6 |
| 20260506135900 | 24 | 176 | 4.8 | 6.4 | 0.00 | 0.00 | 0.00 | 39 | 1004.6 |
| 20260506134848 | 24 | 204 | 6.4 | 6.4 | 0.00 | 0.00 | 0.00 | 39 | 1004.6 |
| 20260506133836 | 25 | 180 | 8.0 | 9.7 | 0.00 | 0.00 | 0.00 | 40 | 1004.6 |
| 20260506132829 | 22 | 187 | 1.6 | 1.6 | 0.00 | 0.00 | 0.00 | 48 | 1005.0 |
| 20260506111153 | 22 | 174 | 8.0 | 9.7 | 0.00 | 0.00 | 0.00 | 48 | 1004.9 |
| 20260506110118 | 22 | 167 | 3.2 | 3.2 | 0.00 | 0.00 | 0.00 | 49 | 1004.9 |
| 20260506105117 | 23 | 189 | 6.4 | 6.4 | 0.00 | 0.00 | 0.00 | 46 | 1004.9 |
| 20260506104116 | 22 | 271 | 6.4 | 6.4 | 0.00 | 0.00 | 0.00 | 47 | 1005.0 |
| 20260506103025 | 22 | 198 | 6.4 | 6.4 | 0.00 | 0.00 | 0.00 | 48 | 1004.8 |
| 20260506102006 | 22 | 183 | 16.1 | 16.1 | 0.00 | 0.00 | 0.00 | 49 | 1004.8 |
| 20260506100914 | 22 | 186 | 3.2 | 3.2 | 0.00 | 0.00 | 0.00 | 48 | 1004.8 |
| 20260506095913 | 21 | 174 | 4.8 | 4.8 | 0.00 | 0.00 | 0.00 | 50 | 1004.7 |
| 20260506094908 | 21 | 211 | 3.2 | 3.2 | 0.00 | 0.00 | 0.00 | 51 | 1004.8 |
| 20260506092853 | 21 | 188 | 1.6 | 1.6 | 0.00 | 0.00 | 0.00 | 52 | 1004.7 |
| 20260506091848 | 21 | 188 | 8.0 | 8.0 | 0.00 | 0.00 | 0.00 | 53 | 1004.8 |
| 20260506090849 | 20 | 170 | 9.7 | 9.7 | 0.00 | 0.00 | 0.00 | 53 | 1004.7 |
| 20260506085836 | 20 | 197 | 1.6 | 1.6 | 0.00 | 0.00 | 0.00 | 55 | 1004.6 |
| 20260506084824 | 20 | 198 | 4.8 | 4.8 | 0.00 | 0.00 | 0.00 | 55 | 1004.7 |
| 20260506083824 | 20 | 187 | 6.4 | 6.4 | 0.00 | 0.00 | 0.00 | 54 | 1004.7 |
| 20260506082815 | 20 | 169 | 8.0 | 8.0 | 0.00 | 0.00 | 0.00 | 54 | 1004.7 |
| 20260506080804 | 19 | 169 | 6.4 | 6.4 | 0.00 | 0.00 | 0.00 | 55 | 1004.5 |
| 20260506060516 | 17 | 185 | 4.8 | 4.8 | 0.00 | 0.00 | 0.00 | 58 | 1004.4 |
| 20260506050450 | 12 | 180 | 3.2 | 3.2 | 0.00 | 0.00 | 0.00 | 65 | 1004.6 |
| 20260506044438 | 11 | 210 | 0.0 | 0.0 | 0.00 | 0.00 | 0.00 | 71 | 1004.6 |
| 20260506043425 | 10 | 222 | 0.0 | 0.0 | 0.00 | 0.00 | 0.00 | 75 | 1004.6 |
| 20260506042425 | 10 | 240 | 0.0 | 0.0 | 0.00 | 0.00 | 0.00 | 76 | 1004.6 |
| 20260506041423 | 9 | 240 | 0.0 | 0.0 | 0.00 | 0.00 | 0.00 | 77 | 1004.6 |
| 20260506040401 | 9 | 240 | 0.0 | 0.0 | 0.00 | 0.00 | 0.00 | 75 | 1004.5 |
| 20260506035348 | 8 | 300 | 0.0 | 0.0 | 0.00 | 0.00 | 0.00 | 76 | 1004.5 |
| 20260506034339 | 8 | 312 | 0.0 | 0.0 | 0.00 | 0.00 | 0.00 | 77 | 1004.4 |
| 20260506033336 | 8 | 312 | 0.0 | 0.0 | 0.00 | 0.00 | 0.00 | 77 | 1004.4 |
| 20260506032323 | 8 | 306 | 0.0 | 0.0 | 0.00 | 0.00 | 0.00 | 77 | 1004.5 |
| 20260506031323 | 8 | 306 | 0.0 | 0.0 | 0.00 | 0.00 | 0.00 | 77 | 1004.5 |
| 20260506030310 | 8 | 306 | 0.0 | 0.0 | 0.00 | 0.00 | 0.00 | 76 | 1004.6 |
| 20260506025310 | 8 | 306 | 0.0 | 0.0 | 0.00 | 0.00 | 0.00 | 75 | 1004.7 |
| 20260506024258 | 9 | 306 | 0.0 | 0.0 | 0.00 | 0.00 | 0.00 | 74 | 1004.7 |
| 20260506023246 | 9 | 312 | 0.0 | 0.0 | 0.00 | 0.00 | 0.00 | 74 | 1004.7 |
| 20260506022233 | 9 | 258 | 0.0 | 0.0 | 0.00 | 0.00 | 0.00 | 73 | 1004.7 |
| 20260506021220 | 9 | 258 | 0.0 | 0.0 | 0.00 | 0.00 | 0.00 | 74 | 1004.8 |
| 20260506020209 | 11 | 216 | 0.0 | 0.0 | 0.00 | 0.00 | 0.00 | 66 | 1005.2 |
| 20260505234347 | 11 | 216 | 0.0 | 0.0 | 0.00 | 0.00 | 0.00 | 65 | 1005.2 |
| 20260505233336 | 12 | 218 | 1.6 | 1.6 | 0.00 | 0.00 | 0.00 | 63 | 1005.3 |
| 20260505232335 | 12 | 218 | 0.0 | 0.0 | 0.00 | 0.00 | 0.00 | 62 | 1005.2 |
| 20260505231323 | 13 | 224 | 0.0 | 0.0 | 0.00 | 0.00 | 0.00 | 59 | 1005.1 |
| 20260505230323 | 13 | 224 | 0.0 | 0.0 | 0.00 | 0.00 | 0.00 | 57 | 1005.2 |
| 20260505225312 | 13 | 224 | 0.0 | 0.0 | 0.00 | 0.00 | 0.00 | 57 | 1005.3 |